ニート彗星

C/2003 J1 ( NEAT )

English version
Home page
Updated on July 28, 2004

---------------------------------------------------------------------

・ プロフィール

発見日 2003年5月13日
発見光度 19.4等
発見者 Near-Earth-Asteroid Tracking Team (Jet Propulsion Laboratory)

・ 軌道要素

The following orbital elements are taken from MPC 52314: 

Epoch 2003 Oct. 8.0 TT = JDT 2452920.5
T 2003 Oct. 10.5545 TT                                  MPC
q   5.125426             (2000.0)            P               Q
z  +0.001747       Peri.  196.0228      +0.4759734      -0.2641921
 +/-0.000005       Node   122.0328      -0.6583513      +0.5253778
e   0.991047       Incl.   98.3119      -0.5831147      -0.8088144
From 70 observations 2003 May 13-2004 June 25, mean residual 0".5.

・ 星図

・ 光度変化

        m1 = 7.0 + 5 logΔ + 10.0 log r

---------------------------------------------------------------------

軌道要素はMPCのEphemerides and Orbital Elementsに掲載されたものです。
星図は StellaNavigator Ver.2.0 for Windows (アストロアーツ 編著 / アスキー出版局刊) で作成したものです。
光度グラフはComet for Windowsで作成したものです。

---------------------------------------------------------------------

Copyright(C) Seiichi Yoshida (comet@aerith.net). All rights reserved.